Погода в Санта Монике

США     34°01′30″N   118°28′49″W
темп.,
°C
ветер,
м/с
пор.,
м/с
влажн.,
%
обл.,
%
осадки,
мм/ч
давл.,
гПа
погр.,
м
3 марта, ср
ср301:00+12зюз11600 0.0 1010157
04:00+11ю01620 0.0 1009161
07:00+12вюв36640 0.0 1009510
10:00+14ююв786333 0.3 10101320
13:00+12в81066100 1.5 1010816
16:00+14в665673 1.5 1010943
19:00+13ююв346927 0.0 1014567
22:00+12юз127113 0.0 1017404
4 марта, чт
чт401:00+12сз117412 0.0 1019115
04:00+11с22756 0.0 102185
07:00+11ссв01720 0.0 1022104
10:00+15ююв11550 0.0 1024607
13:00+15юз32530 0.0 1023610
16:00+15зюз44600 0.0 1023324
19:00+15з33640 0.0 1023107
22:00+15сз23580 0.0 102441
5 марта, пт
пт501:00+14с12580 0.0 102223
04:00+14зсз12570 0.0 102124
07:00+14с12480 0.0 102123
10:00+18ююз11350 0.0 1020268
13:00+19юз323857 0.0 1019472
16:00+19зюз454061 0.0 1016296
19:00+17зсз464146 0.0 1017140
22:00+16зсз344641 0.0 101872
6 марта, сб
сб601:00+14з33570 0.0 1017115
04:00+13сз12620 0.0 1017134
07:00+13св12660 0.0 1018189
10:00+16вюв12550 0.0 1018460
13:00+16юз54540 0.0 1016550
16:00+16зюз67640 0.0 1016614
19:00+14зюз45680 0.0 1017299
22:00+12юз23760 0.0 1019268
7 марта, вс
вс701:00+12вюв237577 0.0 1018319
04:00+12вюв457689 0.0 1018455
07:00+12в3576100 0.0 1018570
10:00+14юв336199 0.0 1019849
13:00+15ю4356100 0.0 1018793
16:00+14зюз3269100 0.0 1017350
19:00+12зюз237695 0.0 1018268
22:00+12ю117690 0.0 1020231